Showing default

LEMUR 2 TILLINFINITY, 63356

Orbit data source: Space-Track

LEMUR 2 TILLINFINITY, 63356 is a payload satellite owned by OroraTech (US) in SSO that was launched on Wed, 26 Mar 2025 UTC via an ELECTRON launch vehicle from the Rocket Lab Launch Complex (RLLC). Payload-class satellites include a variety of spacecraft equipped with specific instruments for various scientific and technological missions. These include communications satellites like Starlink; space stations such as the ISS; scientific satellites like the Hubble; Earth observation satellites from companies like Planet Labs, Umbra, and HawkEye 360; GPS; miniature CubeSats for education and research; and military/defense satellites.

Loading next visibility...
Identifier
63356, 2025-061F
Orbit
SSO
Country
Flag of USUS
Related business
Manufacturer
Spire/Glasgow
Mission
Operational Commercial Imaging
Bus & Motor
CUBESAT 6U, Unknown motor
Mass
~15 kg wet, ~15 kg dry
Launch date (UTC)
2025-03-26 (7 months ago)
Launch vehicle
ELECTRON
Launch site
Rocket Lab Launch Complex (RLLC)
Object type
Payload
Rocket body
Debris
Shape & HBR
Box + 2 Pan, 0.4 m
Radar Cross Section
0.065 m², Medium (>0.1 m² and < 1m²)

Expand to show TLE details & history
Last TLE update: 17 hours ago

TLE from 17 hours ago
0 LEMUR 2 TILLINFINITY
1 63356U 25061F   25309.64915622  .00005397  00000-0  31375-3 0  9997
2 63356  97.5367 282.6269 0017316 303.2304  56.7266 15.12380085 33821
Epoch: 2025-11-05T15:34Z
TLE epoch observation values (Epoch: 2025-11-05T15:34:47.097Z)
Latitude
-0.00005°
Longitude
3.81187°
Altitude
525.471 km
Speed
7.604 km/s
True Right ascension
18h 50m 30s
True Declination
0° 00' 00"
Sunlit
Object was in daylight at epoch
Visualization orbit readout
Latitude
Unknown
Longitude
Unknown
Altitude
Unknown
Speed
Unknown
Apparent Right ascension
Unknown
Apparent Declination
Unknown
Sunlit
N/A
Visualization observer readout
Local Sidereal Time
04:08:12
Azimuth
Unknown
Elevation
Unknown
Doppler factor
Unknown
Orbital elements
Apogee altitude
537.881 km
Perigee altitude
513.97 km
Semi-major axis
6,904.062 km
Eccentricity
0.00173
Inclination
97.5367°
RAAN
282.6269°
Arg. of periapsis
303.2304°
True anomaly
56.89269°
Mean anomaly
56.7266°
Eccentric anomaly
56.80963°
Mean motion
3.78343 °/min
Orbital period
95.15 mins
BSTAR
0.00031375
Loading maneuver chart data...
Computing Atmospheric mass density...
Loading historical data...
Loading historical data...
Loading historical data...
Loading historical data...
Loading historical data...
Loading historical data...
Loading historical data...

Documentation

Showing up to 5 results
|